Date String (YYYY-MM-DD hh:mm:ss) UTC,Instrument flags,Ambient pressure (hPa),Sample flow (lpm),Bypass flow (lpm),Sample temperature (°C),Ambient temperature (°C),ASC tube jacket temperature (°C),LED temperature (°C),Box temperature (°C),Sample RH (%),Span deviation,Mass concentration (μg/m³),Mass concentration (μg/m³),Mass concentration (μg/m³)
DateTimeUTC,F1_M11,P_M11,Q1_M11,Q2_M11,T1_M11,T2_M11,T3_M11,T4_M11,T5_M11,U1_M11,ZSPAN_M11,X0_M11,X2_M11,X1_M11
2021-09-25 15:00:00,,0830.6,5.01,0.00,30.4,27.5,00.0,39.7,31.8,16.3,0002.2,0017.55,0007.55,0006.15
2021-09-25 15:01:00,,0830.6,4.99,0.00,30.3,27.9,00.0,39.6,31.8,16.2,0002.1,0017.13,0007.54,0006.13
2021-09-25 15:02:00,,0830.6,4.99,0.00,30.3,28.2,00.0,39.6,31.9,16.2,0002.4,0016.96,0007.61,0006.14
2021-09-25 15:03:00,,0830.6,5.00,0.00,30.3,28.5,00.0,39.6,31.9,16.2,0002.6,0016.87,0007.60,0006.12
2021-09-25 15:04:00,,0830.6,4.99,0.00,30.3,28.7,00.0,39.6,31.9,16.2,0002.6,0017.92,0007.55,0006.11
2021-09-25 15:05:00,,0830.6,5.01,0.00,30.3,28.9,00.0,39.5,32.0,16.3,0003.0,0018.37,0007.50,0006.09
2021-09-25 15:06:00,,0830.6,4.99,0.00,30.4,29.0,00.0,39.5,32.0,16.3,0002.7,0018.76,0007.51,0006.09
2021-09-25 15:07:00,,0830.6,5.01,0.00,30.4,29.1,00.0,39.5,32.0,16.4,0002.1,0018.70,0007.53,0006.09
2021-09-25 15:08:00,,0830.6,5.00,0.00,30.4,29.2,00.0,39.5,32.1,16.3,0002.0,0018.93,0007.54,0006.10
2021-09-25 15:09:00,,0830.6,5.00,0.00,30.4,29.3,00.0,39.5,32.1,17.0,0002.0,0018.74,0007.60,0006.12
2021-09-25 15:10:00,,0830.6,4.99,0.00,30.4,29.4,00.0,39.5,32.1,17.1,0001.8,0018.72,0007.61,0006.15
2021-09-25 15:11:00,,0830.6,5.00,0.00,30.4,29.4,00.0,39.5,32.1,16.8,0001.7,0019.26,0007.62,0006.18
2021-09-25 15:12:00,,0830.6,5.00,0.00,30.5,29.5,00.0,39.5,32.2,17.4,0001.9,0020.00,0007.66,0006.21
2021-09-25 15:13:00,,0830.6,5.00,0.00,30.5,29.5,00.0,39.6,32.2,16.9,0001.9,0020.45,0007.68,0006.23
2021-09-25 15:14:00,,0830.6,4.99,0.00,30.5,29.6,00.0,39.6,32.2,16.6,0001.8,0020.87,0007.69,0006.25
2021-09-25 15:15:00,,0830.6,4.99,0.00,30.5,29.6,00.0,39.6,32.3,16.4,0001.5,0020.08,0007.65,0006.28
2021-09-25 15:16:00,,0830.6,5.01,0.00,30.5,29.7,00.0,39.6,32.3,16.2,0001.0,0020.15,0007.68,0006.31
2021-09-25 15:17:00,,0830.6,4.99,0.00,30.6,29.7,00.0,39.6,32.3,16.6,0001.4,0019.27,0007.71,0006.34
2021-09-25 15:18:00,,0830.6,5.00,0.00,30.6,29.7,00.0,39.6,32.3,16.6,0001.9,0018.33,0007.66,0006.32
2021-09-25 15:19:00,,0830.6,4.99,0.00,30.6,29.7,00.0,39.7,32.4,16.2,0001.7,0018.14,0007.62,0006.31
2021-09-25 15:20:00,,0830.6,4.99,0.00,30.6,29.7,00.0,39.7,32.4,16.5,0001.7,0018.89,0007.57,0006.30
2021-09-25 15:21:00,,0830.6,5.00,0.00,30.6,28.4,00.0,39.7,32.0,16.4,0001.9,0019.24,0007.60,0006.29
2021-09-25 15:22:00,,0830.6,5.00,0.00,30.4,26.8,00.0,39.6,31.6,16.8,0002.2,0020.00,0007.59,0006.27
2021-09-25 15:23:00,,0830.6,5.01,0.00,30.3,26.9,00.0,39.6,31.6,16.4,0002.1,0018.95,0007.51,0006.24
2021-09-25 15:24:00,,0830.6,5.00,0.00,30.2,27.3,00.0,39.5,31.7,16.1,0002.1,0018.63,0007.46,0006.24
2021-09-25 15:25:00,,0830.6,5.00,0.00,30.2,27.7,00.0,39.5,31.7,17.4,0002.0,0018.26,0007.44,0006.24
2021-09-25 15:26:00,,0830.5,5.00,0.00,30.2,28.0,00.0,39.4,31.7,18.1,0002.2,0018.03,0007.47,0006.22
2021-09-25 15:27:00,,0830.5,5.01,0.00,30.2,28.3,00.0,39.4,31.8,17.5,0002.1,0017.63,0007.53,0006.21
2021-09-25 15:28:00,,0830.5,4.99,0.00,30.2,28.6,00.0,39.4,31.9,17.6,0001.9,0017.96,0007.57,0006.20
2021-09-25 15:29:00,,0830.5,5.01,0.00,30.2,28.7,00.0,39.4,31.9,18.0,0002.0,0018.74,0007.59,0006.21
2021-09-25 15:30:00,,0830.5,5.01,0.00,30.2,28.9,00.0,39.4,31.9,18.0,0002.0,0019.30,0007.67,0006.20
2021-09-25 15:31:00,,0830.5,4.98,0.00,30.3,29.0,00.0,39.4,32.0,18.1,0001.8,0018.75,0007.72,0006.19
2021-09-25 15:32:00,,0830.5,5.00,0.00,30.3,29.1,00.0,39.4,32.0,18.0,0001.4,0017.95,0007.69,0006.18
2021-09-25 15:33:00,,0830.5,5.00,0.00,30.3,29.2,00.0,39.4,32.0,17.9,0001.0,0018.07,0007.73,0006.19
2021-09-25 15:34:00,,0830.5,4.99,0.00,30.3,29.3,00.0,39.4,32.0,17.0,0001.1,0018.99,0007.81,0006.20
2021-09-25 15:35:00,,0830.5,5.01,0.00,30.3,29.3,00.0,39.4,32.1,17.3,0001.1,0019.28,0007.87,0006.21
2021-09-25 15:36:00,,0830.5,5.00,0.00,30.4,29.4,00.0,39.4,32.1,17.5,0001.1,0019.42,0007.90,0006.21
2021-09-25 15:37:00,,0830.5,4.98,0.00,30.4,29.4,00.0,39.4,32.1,17.6,0000.9,0020.65,0007.96,0006.23
2021-09-25 15:38:00,,0830.5,5.02,0.00,30.4,29.1,00.0,39.4,32.0,17.7,0001.3,0020.96,0007.94,0006.24
2021-09-25 15:39:00,,0830.5,4.98,0.00,30.3,27.2,00.0,39.4,31.5,17.7,0001.3,0021.22,0007.95,0006.23
2021-09-25 15:40:00,,0830.4,4.99,0.00,30.1,26.4,00.0,39.4,31.3,18.2,0001.1,0020.97,0008.00,0006.25
2021-09-25 15:41:00,,0830.4,5.01,0.00,30.0,26.7,00.0,39.3,31.4,17.8,0001.1,0020.86,0008.00,0006.25
2021-09-25 15:42:00,,0830.4,5.00,0.00,30.0,27.2,00.0,39.3,31.4,18.3,0001.1,0021.02,0008.00,0006.26
2021-09-25 15:43:00,,0830.4,4.99,0.00,30.0,27.6,00.0,39.2,31.5,18.2,0001.2,0021.70,0008.03,0006.27
2021-09-25 15:44:00,,0830.5,5.00,0.00,30.0,27.9,00.0,39.2,31.6,18.4,0001.5,0021.61,0008.00,0006.26
2021-09-25 15:45:00,,0830.5,5.00,0.00,30.0,28.2,00.0,39.2,31.6,18.4,0001.7,0020.66,0007.98,0006.26
2021-09-25 15:46:00,,0830.4,5.00,0.00,30.0,28.4,00.0,39.2,31.7,18.2,0001.9,0020.89,0008.00,0006.25
2021-09-25 15:47:00,,0830.4,5.00,0.00,30.0,28.6,00.0,39.2,31.7,18.4,0001.6,0020.72,0007.98,0006.24
2021-09-25 15:48:00,,0830.4,4.99,0.00,30.0,28.7,00.0,39.2,31.8,18.7,0001.5,0020.14,0007.97,0006.24
2021-09-25 15:49:00,,0830.3,5.01,0.00,30.1,28.9,00.0,39.2,31.8,18.6,0002.0,0021.34,0007.99,0006.24
2021-09-25 15:50:00,,0830.3,5.00,0.00,30.1,28.9,00.0,39.2,31.9,18.1,0002.0,0021.83,0007.93,0006.25
2021-09-25 15:51:00,,0830.4,5.01,0.00,30.1,29.0,00.0,39.2,31.9,18.1,0002.0,0022.23,0007.95,0006.27
2021-09-25 15:52:00,,0830.4,4.99,0.00,30.2,29.1,00.0,39.2,31.9,18.1,0001.6,0022.02,0007.94,0006.27
2021-09-25 15:53:00,,0830.3,5.01,0.00,30.2,29.2,00.0,39.2,32.0,18.2,0001.4,0021.87,0007.98,0006.29
2021-09-25 15:54:00,,0830.4,4.98,0.00,30.2,29.3,00.0,39.2,32.0,18.2,0001.8,0021.73,0008.03,0006.32
2021-09-25 15:55:00,,0830.4,5.01,0.00,30.2,29.3,00.0,39.2,32.0,17.5,0001.7,0021.43,0008.11,0006.34
2021-09-25 15:56:00,,0830.4,5.00,0.00,30.3,29.4,00.0,39.3,32.0,17.4,0001.5,0022.06,0008.13,0006.36
2021-09-25 15:57:00,,0830.4,4.99,0.00,30.3,28.5,00.0,39.3,31.8,17.3,0001.0,0021.89,0008.14,0006.38
2021-09-25 15:58:00,,0830.4,4.99,0.00,30.1,26.6,00.0,39.2,31.3,17.4,0001.0,0022.73,0008.23,0006.40
2021-09-25 15:59:00,,0830.3,5.00,0.00,30.0,26.5,00.0,39.2,31.3,16.3,0001.7,0023.52,0008.25,0006.41
